Theta_e
290 290 290 290 290 290 290 290 291 291 291 291 291 292 292 292 292 292 292 292 292 292 293 293 293 293 293 293 293 293 293 294 294 294 294 295 295 295 295 296 296 296 296 296 297 297 297 297 297 298 298 298 298 298 298 299 299 299 299 299 300 300 300 300 300 300 301 301 301 301 301 301 301 301 301 302 302 302 302 302 302 302 302 302 302 302
290 290 290 290 290 290 290 290 291 291 291 291 292 292 292 292 292 292 292 293 293 293 293 293 293 293 293 293 293 294 294 294 294 294 294 295 295 295 295 295 296 296 296 296 296 297 297 297 297 298 298 298 298 298 298 298 299 299 299 299 299 299 299 299 299 300 300 300 300 301 301 301 301 301 301 302 302 302 302 302 301 302 302 302 302 302
290 290 290 290 290 290 290 290 291 291 291 291 292 292 292 292 293 293 293 293 293 293 293 293 293 293 293 294 294 294 294 294 294 294 295 295 295 295 295 295 296 296 296 296 296 297 297 297 297 297 298 298 298 298 298 298 298 298 298 298 298 298 298 298 299 299 299 299 299 299 300 300 300 300 300 301 301 301 301 301 301 301 301 302 301 301
290 290 290 290 290 290 290 290 291 291 291 292 292 292 292 292 293 293 293 293 293 293 293 293 293 294 294 294 294 294 294 294 294 294 295 295 295 295 295 295 296 296 296 296 296 296 297 297 297 297 297 297 297 298 298 298 298 297 297 298 298 298 298 298 298 298 298 298 298 298 299 299 299 299 299 300 300 300 300 301 301 301 301 301 301 301
289 289 289 290 290 290 290 290 291 291 291 292 292 292 292 293 293 293 293 293 293 293 293 293 294 294 294 294 294 294 294 294 294 295 295 295 295 295 295 295 296 296 296 296 296 296 296 297 297 297 297 297 297 297 297 297 297 297 297 297 297 298 298 298 298 298 298 298 298 298 298 298 299 299 299 299 299 299 300 300 300 300 300 300 301 301
290 290 290 290 290 290 290 290 291 291 291 292 292 292 292 293 293 293 293 293 293 293 293 293 294 294 294 294 294 294 294 294 294 295 295 295 295 295 295 295 296 296 296 296 296 296 296 297 297 297 297 297 297 297 297 297 297 297 297 298 298 298 298 298 298 298 298 298 298 299 299 299 299 299 299 299 299 299 300 299 300 300 300 300 300 301
290 290 290 290 290 290 290 291 291 291 292 292 292 292 292 293 293 293 293 293 293 293 293 294 294 294 294 294 294 294 294 294 295 295 295 295 295 295 295 295 296 296 296 296 296 296 296 297 297 297 297 297 297 297 297 297 297 297 298 298 298 298 298 298 298 298 298 298 299 299 299 299 299 299 299 299 299 299 300 300 300 300 300 300 300 301
290 290 290 290 291 291 291 291 291 291 292 292 292 292 292 293 293 293 293 293 293 293 293 294 294 294 294 294 294 294 294 295 295 295 295 295 295 295 295 295 296 296 296 296 296 296 296 296 297 297 297 297 297 297 297 297 297 297 297 297 297 297 298 298 298 298 298 298 298 298 299 299 299 299 299 299 299 299 299 299 299 299 299 299 300 300
290 291 291 291 291 291 291 291 291 292 292 292 292 293 293 293 293 293 293 293 293 293 293 294 294 294 294 294 294 294 294 295 295 295 295 295 295 295 295 295 295 296 296 296 296 296 296 296 296 296 296 296 297 297 297 297 297 297 297 297 297 297 297 297 297 297 297 297 297 298 298 298 298 298 298 298 298 298 298 298 298 298 298 299 299 299
291 291 291 291 291 291 291 291 292 292 292 292 292 292 293 293 293 293 293 293 293 293 293 294 294 294 294 294 294 294 294 295 295 295 295 295 295 295 295 295 295 295 295 295 295 295 295 296 296 296 296 296 296 296 296 296 296 296 296 297 297 297 297 297 297 297 297 297 297 297 297 297 297 297 297 297 297 298 297 298 298 298 298 298 298 298
291 290 290 290 290 291 291 292 292 292 292 293 293 293 293 293 293 293 293 293 293 293 294 294 294 294 294 294 294 294 294 295 295 295 295 295 295 295 295 295 295 295 295 295 295 295 295 295 295 295 295 295 295 295 295 295 295 295 295 295 296 296 296 296 296 297 297 297 297 297 297 297 297 297 297 297 297 297 297 297 297 297 297 297 298 298
290 290 290 290 291 291 292 292 292 293 293 293 293 293 293 293 293 293 293 294 294 294 294 294 294 294 294 294 294 294 295 295 295 295 295 295 295 295 295 295 295 295 295 295 295 295 295 295 295 295 295 295 295 295 295 295 295 295 295 295 295 295 296 296 296 296 296 296 296 297 297 297 297 297 297 297 297 297 297 297 297 297 297 297 297 297
290 290 290 291 291 292 292 293 293 293 293 293 293 293 293 293 293 293 293 294 294 295 295 295 294 294 294 294 294 295 295 295 295 295 295 295 295 295 295 295 295 295 295 295 295 295 295 295 295 295 295 295 295 295 295 295 295 295 295 295 295 295 296 296 296 296 296 296 296 296 296 296 297 297 297 297 297 297 297 297 297 297 297 297 297 297
291 291 292 292 292 293 293 293 293 293 292 292 292 292 292 292 293 293 294 294 295 295 294 294 294 293 294 294 294 295 295 295 295 295 295 295 295 295 295 295 295 295 295 295 295 295 294 294 295 295 295 295 295 295 295 295 295 295 295 295 295 295 295 296 296 296 296 296 296 296 296 296 296 296 296 296 297 297 297 297 297 297 297 297 297 297
291 292 292 292 292 292 292 292 292 292 292 292 292 292 292 293 293 294 295 295 295 294 294 293 293 293 293 294 294 295 295 295 295 295 295 295 295 295 295 295 295 294 294 294 294 294 294 294 294 295 295 295 295 295 295 295 295 295 295 295 295 295 295 295 295 296 296 296 296 296 296 296 296 296 296 296 296 296 296 297 297 297 296 296 296 296
291 291 292 292 292 292 292 292 292 292 292 292 293 293 293 294 294 294 295 295 294 294 293 293 293 293 293 293 294 294 294 295 295 295 295 295 295 295 294 294 294 294 294 294 294 294 294 294 294 295 295 295 295 295 295 294 294 294 294 294 294 295 295 295 295 295 295 296 296 296 296 296 296 296 296 296 296 296 296 296 296 296 296 296 296 296
292 293 293 293 293 293 293 293 293 293 293 293 293 293 294 294 294 294 294 294 294 293 293 293 293 294 294 293 294 294 294 295 295 295 295 294 294 294 294 294 294 294 294 294 294 294 294 294 295 295 295 295 295 295 295 294 294 294 294 294 294 295 295 295 295 295 295 296 296 296 296 296 296 296 296 296 296 296 296 296 296 296 296 296 296 296
291 291 291 291 291 292 292 293 293 293 293 293 293 293 294 294 294 294 294 294 294 294 293 293 293 294 294 294 294 294 294 294 294 293 293 293 293 293 293 293 293 293 293 293 294 294 294 294 295 295 295 295 295 295 295 295 295 294 294 294 294 295 295 295 295 296 296 296 296 296 296 296 296 296 296 296 296 296 296 296 296 296 296 296 296 297
290 290 290 290 291 291 291 291 291 291 292 292 292 292 292 293 293 293 294 294 294 293 293 293 293 293 294 294 294 294 293 293 292 292 292 292 292 292 292 292 292 292 292 293 293 293 294 294 295 295 295 295 295 295 295 295 295 294 294 294 295 295 295 295 295 295 296 296 296 296 296 296 296 296 296 296 296 296 296 296 296 296 296 296 296 296
291 291 291 291 291 291 291 291 291 291 291 291 291 292 292 292 293 294 294 294 293 293 293 293 294 294 294 293 293 292 292 292 292 292 292 292 292 292 292 292 292 292 292 292 292 293 293 294 294 295 295 295 295 295 295 295 295 294 294 294 294 295 295 295 295 295 295 295 295 295 296 296 296 296 296 296 295 295 295 295 295 296 296 296 296 296
292 292 292 292 291 291 291 291 291 291 291 291 292 292 292 293 293 294 294 293 293 293 293 293 293 293 293 292 292 292 291 291 291 291 291 291 291 291 291 291 291 291 291 291 292 292 293 293 294 294 294 294 295 295 295 295 295 294 294 294 294 294 295 295 295 295 295 295 295 295 295 296 296 296 296 295 295 295 295 295 295 296 296 296 296 296
291 291 291 291 291 291 291 291 291 291 291 292 292 292 292 293 293 293 293 293 292 292 292 292 292 292 292 291 291 291 291 291 291 291 291 291 291 291 291 291 291 291 291 291 291 292 292 292 293 293 293 294 294 294 295 295 295 294 294 294 294 294 295 295 295 295 295 295 295 295 295 295 295 295 295 295 295 295 295 295 295 295 296 296 296 296
291 290 290 290 290 291 291 291 291 292 292 292 292 292 292 292 292 292 292 291 291 291 291 291 291 291 291 291 291 290 290 290 290 290 290 290 290 290 290 290 290 290 291 291 291 291 291 291 292 292 292 293 293 294 294 294 294 294 294 294 294 294 294 295 295 295 295 295 295 295 295 295 295 295 295 295 295 295 295 295 295 295 295 296 296 296
291 291 290 290 290 291 291 291 292 292 292 292 292 292 292 292 292 292 291 291 291 291 291 291 291 291 291 291 290 290 290 290 290 290 290 290 290 290 290 290 290 290 290 290 290 290 290 290 291 291 291 292 293 293 294 294 294 294 294 294 294 293 294 294 295 295 295 295 295 295 295 295 295 295 295 295 295 295 295 295 295 295 295 295 295 295
291 291 291 291 291 291 292 292 292 292 292 292 292 292 292 292 291 291 291 291 291 291 291 291 291 290 290 290 290 290 290 290 290 290 290 290 290 290 289 289 289 290 290 289 289 289 290 290 290 291 291 292 292 293 293 293 294 294 294 294 293 293 293 294 294 295 295 295 295 295 295 295 295 295 295 295 295 295 295 295 295 295 295 295 295 295
291 291 291 291 292 292 292 292 292 292 292 292 292 291 291 290 290 290 290 290 290 290 290 290 290 290 289 289 289 289 289 289 289 289 289 289 289 289 289 289 289 289 289 289 289 289 290 290 291 291 291 291 291 291 291 292 292 293 293 293 293 293 293 294 294 294 295 295 295 295 295 295 295 295 295 295 295 295 295 295 295 295 295 295 295 295
291 291 292 292 292 292 292 292 292 292 291 291 291 291 290 289 289 289 289 289 289 289 289 289 289 289 289 289 289 289 289 289 289 289 289 289 289 288 288 288 288 289 289 289 289 289 290 290 290 290 290 290 290 290 290 290 291 292 293 293 293 293 293 294 294 294 294 295 295 294 295 295 295 295 295 295 295 295 295 295 295 295 295 295 295 295
292 292 292 292 292 292 291 291 290 290 290 290 290 290 289 288 288 288 288 288 288 288 288 288 289 289 289 289 288 288 288 288 288 288 288 288 288 288 288 288 288 288 288 289 289 289 289 289 288 288 289 289 289 289 290 290 291 292 293 293 293 293 294 294 294 294 294 294 294 294 294 294 294 294 294 294 294 294 294 294 294 294 295 295 295 295
291 291 291 291 291 290 289 288 288 288 289 289 289 288 288 287 287 288 288 288 288 287 288 288 288 288 288 288 288 287 287 287 287 287 287 288 288 288 288 288 288 288 288 288 287 287 287 287 287 288 288 289 289 290 290 291 291 292 292 292 293 293 293 293 293 293 293 293 293 293 293 293 293 293 294 294 294 294 294 294 294 294 294 294 294 294
291 291 290 290 289 289 288 288 287 288 288 288 287 287 287 287 287 287 287 287 287 287 287 287 287 287 287 287 287 287 287 287 287 287 287 288 288 288 287 287 287 287 287 287 287 287 287 287 287 288 288 289 290 290 290 290 290 290 291 291 291 292 292 292 292 292 292 292 291 291 291 292 292 293 293 293 293 294 294 294 294 294 294 294 294 294
290 290 290 289 289 288 288 288 287 287 287 287 286 286 286 286 286 287 287 286 286 287 287 287 287 287 287 287 287 287 287 286 287 287 287 287 287 287 287 286 286 286 286 287 287 287 287 287 288 288 289 289 289 289 288 288 289 289 289 290 290 291 291 291 291 291 291 291 291 291 291 291 292 292 292 292 293 293 293 294 294 294 294 294 294 294
290 289 289 288 288 288 288 288 287 287 287 286 286 286 286 286 286 286 286 286 286 286 286 286 286 286 286 286 286 286 286 286 286 286 286 286 286 286 286 286 286 286 287 287 287 288 288 288 288 288 288 288 288 288 287 288 288 288 288 289 289 289 290 290 291 291 291 291 291 291 291 292 292 292 292 292 292 292 293 293 293 294 294 294 294 294
289 289 288 288 288 288 288 288 287 287 287 286 286 286 286 286 286 286 286 286 286 286 286 285 285 285 285 285 285 286 285 285 285 285 286 286 286 286 286 286 286 286 286 286 287 287 287 287 287 287 287 287 287 287 287 287 287 288 288 288 288 289 289 289 290 290 290 291 291 292 292 292 293 293 293 292 292 292 293 293 293 293 293 293 293 293
288 288 288 288 287 287 287 287 287 287 287 287 286 286 286 286 286 286 286 285 285 285 285 285 285 285 285 285 285 285 285 285 285 285 285 285 286 286 286 286 285 285 285 285 285 285 286 286 286 287 287 287 287 287 287 287 287 287 287 288 288 288 289 289 289 289 290 290 291 291 292 292 292 292 292 292 292 292 292 292 292 292 292 293 293 293
287 287 287 287 287 287 287 287 287 287 287 287 287 286 286 286 286 285 285 285 285 285 285 284 285 285 285 285 285 285 285 285 285 285 285 285 285 285 285 285 285 285 285 285 285 286 286 286 286 286 287 287 287 287 287 287 287 287 287 287 288 288 288 289 289 289 290 290 290 291 291 292 292 292 292 292 292 292 292 292 292 292 292 292 292 292
287 287 287 287 287 287 287 287 287 287 287 287 286 286 286 286 285 285 285 285 285 284 284 284 284 284 284 284 285 285 285 285 285 285 285 285 285 285 285 285 285 285 285 285 286 286 286 286 286 286 287 287 287 287 287 287 287 287 287 287 287 288 288 288 289 289 289 290 290 290 290 291 291 292 292 292 292 291 291 291 291 291 291 291 291 291
287 287 287 287 287 287 287 287 287 287 286 286 286 285 285 285 285 285 284 284 284 284 284 284 284 284 284 284 284 284 285 285 284 284 284 284 284 284 285 285 285 285 285 286 286 286 286 286 286 286 286 286 286 286 286 286 286 287 287 287 287 287 288 288 288 289 289 289 290 290 290 290 291 291 291 291 291 290 290 290 290 290 290 290 290 290
287 287 287 287 287 287 287 287 286 286 286 285 285 285 285 284 284 284 284 284 284 284 284 284 284 284 284 284 284 284 284 284 284 284 284 284 284 284 285 285 285 285 286 286 286 286 286 286 286 286 286 286 286 286 286 286 286 286 287 287 287 287 288 288 288 289 289 290 290 290 290 290 290 290 290 290 290 290 290 290 290 290 290 290 290 289
287 287 287 287 286 286 286 286 286 285 285 285 284 284 284 284 284 284 284 284 284 284 284 284 284 284 284 284 284 284 284 284 284 284 284 284 284 285 285 285 285 285 286 286 286 286 286 286 286 286 286 286 286 286 286 286 286 286 287 287 287 288 288 288 289 289 290 290 290 290 290 290 290 290 290 290 290 290 290 290 290 290 290 290 290 290
287 287 286 286 286 286 286 285 285 285 284 284 284 284 284 284 284 284 284 284 284 284 284 284 284 284 284 284 284 284 284 284 284 285 285 285 285 285 285 285 285 285 286 286 286 286 286 286 286 286 286 286 286 286 286 286 286 286 287 287 287 288 288 288 289 289 290 290 290 290 290 290 290 290 290 290 290 290 290 290 290 290 290 290 290 290
286 286 286 286 286 285 285 285 284 284 284 284 284 284 284 284 284 284 284 284 284 284 284 284 284 284 284 284 284 285 285 285 285 285 285 285 285 285 285 285 285 285 285 286 286 286 286 286 287 287 287 287 286 286 286 286 286 287 287 287 287 287 287 288 288 289 289 290 290 290 290 290 290 290 290 290 290 289 289 289 290 290 290 290 290 290
286 286 286 285 285 285 284 284 284 284 284 284 284 284 284 284 284 284 284 284 284 284 284 284 285 285 285 285 285 285 285 285 285 285 286 286 286 286 285 285 285 285 285 286 286 286 286 286 287 287 287 287 287 287 287 287 287 287 287 287 287 287 287 287 288 288 289 289 289 289 289 289 289 289 289 290 290 289 289 289 289 289 289 290 290 290
286 286 285 285 285 284 284 284 284 284 284 284 284 284 284 284 284 284 284 284 284 284 285 285 285 285 285 285 285 285 285 285 285 285 285 285 285 285 285 286 286 286 286 286 286 286 286 287 287 287 287 287 287 287 287 287 287 287 287 287 287 287 287 288 288 288 288 289 289 289 289 289 289 289 289 289 289 289 288 288 289 289 289 289 289 290
285 285 285 284 284 284 284 284 284 284 284 284 284 284 284 284 284 284 284 284 285 285 285 285 285 285 285 284 284 284 284 285 285 285 285 285 285 285 285 285 286 286 286 286 286 287 287 287 287 287 287 287 287 287 288 288 288 287 287 287 287 287 287 288 288 288 289 289 289 289 289 289 288 288 288 288 288 288 288 289 289 289 289 289 289 289
285 285 284 284 284 284 284 284 284 284 284 284 284 284 284 284 284 284 284 285 285 285 285 285 285 284 284 284 284 284 284 284 284 285 285 285 285 285 285 286 286 286 286 286 286 287 287 287 287 287 287 287 287 287 288 288 288 287 287 287 287 287 287 288 288 288 289 289 289 289 289 288 288 288 287 288 288 288 288 288 289 289 289 289 289 289
285 284 284 284 284 284 284 284 284 284 284 284 284 284 284 284 284 284 285 285 285 285 285 284 284 284 284 284 284 284 284 284 285 285 285 285 285 286 286 286 286 286 286 286 286 286 287 287 287 287 287 287 287 287 288 288 288 287 287 287 287 287 288 288 288 289 289 289 289 289 288 288 287 287 287 288 289 289 288 288 288 289 289 289 289 288
285 284 284 284 284 284 284 284 284 284 284 284 284 284 284 284 284 285 285 285 285 285 284 284 284 283 283 284 284 284 284 284 285 285 285 285 285 285 285 285 285 285 286 286 286 287 287 287 287 287 287 287 288 288 288 288 288 288 288 288 288 288 288 289 289 289 289 289 288 288 288 288 287 287 288 289 289 289 289 289 288 288 288 288 288 288
285 284 284 284 284 283 283 283 283 283 284 284 284 284 284 284 284 285 285 285 285 284 284 283 283 283 283 283 283 284 284 284 284 284 284 285 285 285 285 285 285 285 285 286 286 287 287 287 287 287 288 287 288 288 288 288 288 288 288 288 289 289 289 289 289 289 289 288 288 288 288 287 288 288 289 289 290 290 290 289 289 288 288 288 288 288
284 284 284 284 283 283 283 283 283 283 283 283 283 284 284 284 285 285 285 284 284 284 283 283 283 283 282 283 283 283 283 284 284 284 284 284 284 284 285 285 285 285 285 285 286 286 287 288 288 288 288 288 288 288 288 288 288 288 289 289 289 289 289 289 289 289 288 288 288 288 287 287 288 288 289 290 290 290 290 289 289 289 288 288 287 287
284 284 284 284 283 283 283 283 283 283 283 283 283 283 283 284 285 285 284 284 284 283 283 283 282 282 282 282 282 283 283 283 283 283 283 283 283 284 284 284 284 284 284 285 285 286 287 288 288 289 289 288 288 288 288 288 288 288 289 289 289 289 289 289 289 288 288 287 287 288 288 288 288 288 289 289 290 290 289 289 289 288 288 287 287 287
284 284 284 283 283 283 283 283 283 283 283 283 283 283 283 284 285 285 284 284 283 283 283 282 282 282 282 282 282 282 282 282 282 283 283 283 283 283 283 283 283 284 284 284 285 285 286 287 288 289 289 289 289 288 288 289 289 289 290 290 289 289 289 288 288 287 287 287 287 287 288 288 288 288 289 289 289 289 289 289 288 288 288 287 287 287
Wind_Speed
19 19 19 19 20 21 21 21 21 21 22 22 21 21 21 20 20 21 21 21 21 21 21 21 21 21 22 22 23 24 24 25 25 25 25 25 24 24 24 24 23 23 23 22 22 22 22 22 22 22 22 22 22 22 22 22 22 22 22 23 23 23 23 23 23 23 23 23 23 23 22 22 22 22 22 23 23 23 23 23 23 23 23 22 21 20
19 19 20 19 20 20 21 21 20 20 21 22 22 21 21 22 22 22 21 21 21 20 20 20 20 21 21 22 23 24 24 25 25 25 25 25 25 25 24 24 24 24 23 23 23 23 22 22 22 22 22 22 22 22 22 22 23 23 23 23 23 23 23 23 23 23 22 22 22 22 22 22 22 22 22 22 23 23 23 23 23 23 22 22 21 21
20 20 20 19 19 20 20 21 20 20 21 21 22 22 22 23 23 22 21 21 20 20 20 20 20 21 22 22 23 23 24 24 24 25 25 25 25 25 25 25 25 24 24 23 23 23 22 22 22 22 22 22 22 22 22 22 22 23 23 23 23 23 23 23 23 22 22 22 22 22 22 23 22 22 23 23 23 22 22 22 22 23 23 22 22 22
20 20 20 20 20 20 21 21 21 21 21 21 22 22 22 22 22 22 21 21 20 20 20 21 21 21 21 22 22 22 23 23 24 25 25 26 26 26 26 25 25 24 24 23 23 22 22 22 21 21 21 21 21 21 21 22 22 23 23 23 23 23 23 23 23 23 22 22 22 22 23 23 23 23 23 23 23 22 22 22 22 22 23 23 23 23
20 20 21 21 21 21 21 21 21 21 21 21 21 21 21 21 21 21 21 21 21 21 21 21 21 21 21 21 21 22 23 24 25 25 26 26 26 26 26 25 24 24 23 23 22 22 21 21 21 21 20 20 20 20 20 20 21 21 22 22 22 22 22 22 22 22 22 22 22 22 22 22 23 22 22 22 22 22 22 22 22 22 22 23 23 23
22 21 21 21 20 21 21 21 21 21 21 21 20 20 20 20 20 21 21 20 20 21 21 21 21 21 21 21 22 23 24 24 25 25 26 25 25 25 24 24 23 22 22 21 21 21 21 20 20 20 20 20 20 20 20 20 20 20 21 21 21 21 21 21 21 21 21 21 21 21 21 21 21 21 21 21 21 22 22 22 22 22 22 22 23 23
23 22 21 21 21 21 21 21 21 20 20 20 20 20 20 20 20 20 20 20 20 21 21 21 21 21 21 21 22 22 23 23 24 24 23 23 23 22 22 21 21 21 21 20 20 20 20 20 20 20 20 20 20 20 20 20 20 20 20 20 20 20 20 21 21 21 21 21 21 20 20 20 20 20 20 20 20 20 20 21 21 21 21 21 22 22
23 23 21 21 21 21 21 21 20 20 20 19 19 19 20 20 20 20 20 21 21 21 21 21 21 20 20 20 21 21 21 21 21 21 21 21 20 20 19 19 19 20 20 20 20 20 20 20 20 20 20 20 20 20 20 20 20 20 20 20 20 20 20 20 21 21 21 20 20 20 20 20 20 20 19 20 20 20 20 20 20 20 21 21 21 21
23 23 22 21 21 21 22 22 21 19 19 19 19 19 20 20 20 20 21 21 21 21 21 20 20 20 20 20 20 20 21 21 20 20 20 20 20 19 19 20 20 20 20 20 20 20 21 21 21 20 20 20 20 20 20 20 20 20 20 19 19 19 19 20 20 20 20 20 20 20 20 20 20 20 20 20 20 21 21 21 21 21 21 21 21 21
23 23 23 22 22 21 21 21 21 20 19 19 20 20 19 20 20 21 21 21 21 21 20 20 20 20 20 20 20 20 21 20 20 20 20 20 20 20 20 20 20 20 20 20 20 20 20 21 21 20 20 20 20 20 19 19 20 20 20 19 19 19 19 19 19 19 19 19 19 19 19 19 20 20 20 20 20 20 21 21 21 21 21 21 21 21
23 22 22 22 23 22 21 20 20 20 20 20 20 20 19 19 19 20 21 21 21 21 20 19 18 18 19 21 21 21 20 20 20 19 19 19 19 19 19 19 19 19 19 19 19 19 19 20 20 20 20 20 20 19 19 19 19 19 19 19 19 19 19 19 18 18 18 18 18 18 18 18 19 19 19 19 19 19 20 20 20 20 20 20 21 21
21 21 22 23 23 21 20 20 20 20 19 19 18 18 18 18 18 19 20 20 21 21 20 19 18 18 20 22 22 21 20 19 19 18 18 17 17 17 16 16 16 16 16 16 16 17 17 17 18 18 19 19 19 19 19 18 18 18 18 18 18 18 18 18 18 18 18 18 18 18 18 18 18 18 18 19 19 19 19 19 19 19 19 20 20 20
22 22 22 21 20 18 17 17 17 17 16 16 15 16 18 19 20 20 22 22 21 20 19 18 18 20 22 22 22 20 19 19 18 18 17 16 15 15 15 15 14 14 15 15 15 15 15 16 16 17 18 18 18 18 18 18 18 18 18 18 18 18 18 18 18 18 18 18 18 18 18 18 18 18 18 18 19 19 19 19 19 19 19 19 19 20
20 19 17 16 15 16 17 18 18 17 17 16 17 19 21 22 22 22 22 21 20 18 16 17 19 21 22 22 20 19 19 19 18 18 17 15 14 14 15 15 15 15 15 15 15 15 15 15 16 16 16 17 17 17 17 17 17 17 17 18 18 18 18 18 18 18 18 18 18 18 18 18 18 18 18 18 19 19 19 19 19 19 19 19 19 19
17 17 17 17 18 19 19 19 19 18 18 18 19 20 22 22 22 22 20 19 17 15 16 18 20 21 21 20 19 18 18 18 18 17 16 15 14 14 14 15 16 16 16 16 16 16 16 15 15 15 16 16 16 16 16 17 17 18 18 18 18 18 18 18 18 18 18 18 18 18 18 18 18 18 18 18 18 19 19 19 19 19 19 19 19 19
19 19 18 18 19 19 19 19 19 19 18 19 19 19 20 21 20 20 18 16 15 15 15 16 18 19 19 19 18 17 17 17 16 15 15 14 13 13 14 15 16 17 17 17 17 17 16 15 15 15 16 16 17 18 18 18 18 19 19 19 19 18 18 18 18 18 18 18 18 17 17 17 17 18 18 18 19 19 19 19 19 20 20 20 20 20
17 15 14 15 16 18 18 19 18 18 18 18 19 19 20 20 20 19 18 16 15 15 15 14 11 9 12 16 18 16 14 14 14 13 13 13 13 14 14 15 16 17 18 18 18 17 16 15 15 15 16 16 17 18 18 19 19 20 20 20 19 19 19 18 18 18 18 18 18 17 17 17 17 18 18 18 19 19 19 20 21 21 20 21 21 21
18 18 20 20 19 20 20 20 19 18 19 19 19 20 21 21 20 20 19 18 16 16 16 15 12 9 8 12 14 14 12 12 13 13 13 14 15 15 15 15 16 18 19 19 19 18 17 16 16 16 16 17 18 18 19 19 20 20 20 20 20 20 19 19 18 18 18 18 18 17 17 17 17 18 18 18 19 19 20 21 21 21 21 21 21 21
21 21 21 21 22 23 22 22 23 22 21 21 22 22 23 23 23 23 21 20 18 17 16 15 15 15 14 13 12 11 11 12 13 13 15 16 17 17 17 17 18 19 20 20 20 19 18 17 17 17 17 18 19 19 19 19 20 20 21 21 21 20 20 19 19 18 18 18 18 17 17 17 17 18 18 18 19 19 20 21 21 21 21 21 21 21
21 21 21 21 21 22 22 23 23 23 23 22 22 22 23 24 24 23 21 19 18 18 17 15 13 11 10 8 9 11 13 13 14 15 16 18 19 19 19 19 20 21 22 22 21 20 19 19 18 18 18 18 18 18 18 18 19 20 21 21 21 21 20 20 19 18 18 17 17 17 17 17 17 18 18 19 19 19 20 21 21 20 20 20 21 21
21 22 22 22 22 22 22 23 24 24 24 23 22 22 22 22 22 21 19 18 16 15 13 11 10 8 9 10 13 15 16 15 15 16 17 18 19 20 19 20 21 22 22 23 22 21 20 20 20 19 19 18 17 17 17 17 18 19 20 21 22 21 21 20 19 19 18 17 17 17 17 17 17 18 18 18 19 19 20 20 20 20 20 20 21 21
23 24 25 24 23 23 24 25 25 25 24 24 23 22 22 21 20 18 16 15 13 11 10 9 10 11 13 15 17 18 18 17 16 16 16 16 18 20 19 19 19 21 22 22 22 21 21 21 21 21 20 19 18 17 17 17 18 19 20 21 22 22 21 21 20 19 18 18 17 17 17 17 17 18 18 18 19 19 20 20 20 20 20 20 20 21
25 26 26 26 25 25 26 26 26 25 25 24 24 23 23 22 20 18 15 13 12 12 12 13 14 15 16 17 17 17 16 16 15 15 15 12 15 18 18 17 18 19 21 21 21 21 21 21 21 21 20 20 19 18 17 18 19 20 20 21 22 22 21 21 20 20 19 18 18 17 17 17 17 18 18 18 19 19 19 19 19 19 19 20 20 21
26 27 27 26 25 25 25 27 28 27 26 25 24 24 24 23 22 19 17 15 14 14 15 16 16 16 15 16 16 16 16 15 14 13 14 14 15 18 18 17 18 19 20 21 21 21 21 21 21 21 20 20 19 19 18 19 19 20 21 21 21 22 21 21 20 20 19 19 18 17 17 17 18 18 18 18 18 18 19 19 19 19 19 20 20 20
27 27 27 27 27 26 27 28 28 28 26 25 24 24 23 21 19 17 16 15 14 14 14 14 14 14 14 15 16 16 16 16 14 14 15 15 17 19 19 18 18 19 21 21 21 21 21 21 21 20 20 20 20 19 19 20 20 20 21 21 22 22 21 21 20 20 19 19 18 17 17 17 18 18 18 18 18 18 18 18 18 19 19 19 20 20
29 30 31 30 30 30 30 30 28 26 25 25 25 23 21 18 16 15 15 14 14 14 13 13 12 13 15 16 16 17 17 17 15 15 16 16 18 20 21 20 19 20 21 21 21 20 20 21 21 21 21 21 21 22 22 22 22 21 21 21 21 22 21 21 20 20 19 18 18 17 17 18 17 17 17 17 17 17 18 18 18 18 18 19 19 20
30 32 32 32 30 29 27 26 25 25 24 25 25 23 20 18 15 14 13 13 13 13 13 11 10 12 14 15 16 17 18 17 16 16 17 18 18 19 20 19 18 18 19 20 20 19 19 20 21 21 21 22 22 23 23 23 22 21 20 20 20 20 20 20 19 19 18 18 17 17 17 17 17 17 17 16 16 17 17 17 17 17 18 18 19 19
28 27 26 24 23 22 21 21 22 24 25 25 25 24 21 17 14 12 12 12 12 12 12 12 10 9 11 13 16 18 19 18 17 17 17 17 16 16 18 17 16 16 17 18 18 19 19 19 20 21 21 21 21 21 20 19 18 16 15 15 16 16 17 17 18 17 17 17 17 17 17 17 17 16 16 16 16 16 16 16 17 17 17 17 18 19
24 20 18 17 17 19 21 23 24 25 26 25 24 22 19 16 13 11 12 12 12 12 13 14 13 12 12 15 18 19 19 18 17 16 15 14 14 15 16 14 14 14 15 16 18 19 19 19 19 19 19 19 18 16 14 13 12 11 11 11 12 12 13 14 15 16 16 16 17 17 17 17 16 16 16 16 16 15 16 16 16 16 16 16 17 18
17 14 14 16 18 20 23 24 24 24 24 23 21 19 17 15 13 12 12 12 12 12 13 14 15 15 15 15 14 14 15 16 15 12 11 10 12 13 15 14 14 15 15 14 12 12 14 16 16 15 15 14 13 13 13 13 13 13 13 12 12 12 12 13 14 15 16 17 17 18 18 18 18 17 17 16 16 16 15 15 15 15 15 16 16 17
12 13 14 16 18 19 20 20 20 21 21 21 20 18 16 14 13 12 12 11 11 12 13 14 15 15 15 12 7 5 7 13 14 11 10 9 11 13 14 14 15 16 15 12 6 3 6 10 12 12 12 12 13 14 15 16 16 15 15 15 14 14 14 14 14 16 17 17 18 18 19 19 19 19 18 17 17 16 16 15 15 15 15 15 16 16
13 14 15 17 17 17 16 16 16 16 17 18 18 17 15 13 12 12 11 11 11 12 13 14 15 15 15 12 8 6 8 13 14 12 11 11 12 14 14 14 14 14 14 14 11 7 5 5 9 13 14 14 16 17 17 17 17 16 16 16 16 16 15 15 15 15 16 16 17 18 18 18 18 18 18 18 17 17 16 15 15 15 15 15 15 15
16 16 17 17 17 17 16 16 15 14 14 14 14 14 13 12 12 11 11 11 11 12 13 13 14 14 14 14 13 12 14 15 14 12 11 11 11 12 13 13 13 14 15 15 15 14 11 10 13 16 17 17 16 16 16 15 15 15 15 16 16 16 15 15 15 15 15 15 15 15 16 16 16 17 17 17 17 17 16 16 16 15 15 15 15 14
18 18 17 17 17 17 17 16 16 15 14 13 12 12 11 11 11 11 11 11 12 12 12 13 13 12 12 12 13 14 15 14 13 12 11 11 11 11 13 14 15 15 15 14 15 15 14 15 16 16 16 16 16 15 14 14 14 14 15 15 15 15 15 15 15 15 15 14 14 14 13 14 15 16 17 17 17 17 16 16 16 16 16 15 14 14
19 18 18 17 17 17 16 16 15 14 13 13 12 11 11 11 11 12 12 12 12 12 12 12 13 13 13 12 12 13 14 14 13 12 11 12 12 13 14 14 15 14 14 13 13 12 12 14 16 16 15 15 16 16 15 14 14 14 14 14 15 15 15 14 14 14 13 13 13 12 12 12 13 14 15 15 15 15 15 16 16 16 16 15 14 14
18 18 18 17 16 15 15 14 13 13 12 12 12 12 12 12 12 13 13 13 13 13 13 13 14 14 14 14 14 14 15 15 14 13 13 13 13 13 14 14 14 14 13 13 13 13 12 13 15 16 16 14 14 15 15 14 14 14 14 14 14 15 15 14 14 13 13 13 12 12 12 11 11 12 13 13 13 14 15 15 16 16 16 16 15 15
17 17 16 16 15 14 13 12 12 11 11 12 12 13 13 14 14 14 14 14 14 14 14 14 14 14 14 15 16 16 17 16 16 15 15 15 15 14 14 14 14 15 14 14 14 14 13 13 14 15 15 14 13 13 14 15 14 14 14 14 14 14 15 14 14 14 13 13 12 12 11 11 11 11 12 12 12 13 14 15 15 16 16 16 17 17
16 16 15 14 13 12 11 11 11 11 12 13 14 14 15 15 15 14 14 14 14 14 13 13 13 13 14 15 16 17 18 18 18 18 17 16 16 16 16 16 16 16 16 15 15 15 14 12 10 9 10 13 14 15 15 15 15 15 15 15 15 15 15 15 14 14 13 13 12 11 11 11 11 11 11 11 11 11 12 12 13 13 14 15 16 17
15 15 14 12 11 11 11 11 12 12 13 14 15 15 15 15 15 15 14 13 12 12 12 12 12 13 14 15 16 16 17 18 18 18 18 17 17 17 17 17 17 17 16 16 16 16 15 13 11 9 8 11 14 16 16 15 15 15 15 15 15 15 14 14 13 13 13 13 12 11 11 11 11 11 11 10 9 9 9 9 10 10 10 11 12 13
15 14 12 11 10 10 10 11 13 13 14 14 14 14 14 14 13 13 12 11 11 11 11 12 12 12 13 13 14 15 16 17 17 17 18 17 17 17 17 17 16 16 16 16 16 16 15 15 15 14 14 13 13 14 15 15 15 15 15 14 13 13 13 13 13 13 13 13 13 12 12 12 12 12 11 10 9 8 8 8 9 9 8 8 9 9
14 13 12 11 10 10 11 13 13 13 14 13 13 13 13 12 11 11 10 10 10 10 10 10 11 11 12 13 13 13 14 15 16 16 16 16 16 15 15 16 16 16 15 15 15 16 15 16 16 16 16 15 15 15 15 16 16 15 14 13 14 15 15 15 15 14 13 13 12 12 12 13 13 13 13 11 9 8 7 7 8 8 8 8 8 8
13 12 11 11 11 12 13 13 13 13 13 13 13 12 10 10 9 9 9 9 9 9 9 10 10 11 11 12 12 12 12 13 13 14 14 14 14 14 14 14 15 15 15 15 15 15 15 16 16 16 16 16 15 14 14 15 16 15 14 14 14 15 16 15 14 12 11 12 13 14 14 14 14 13 12 10 8 8 9 10 10 9 9 8 8 8
11 10 10 11 11 12 13 13 12 12 11 11 10 9 9 9 9 9 9 9 10 10 10 9 10 10 11 11 12 11 11 11 11 12 13 13 13 13 13 14 14 15 15 15 15 15 16 16 16 16 16 16 15 14 14 14 15 14 13 13 13 13 12 12 12 12 12 13 15 16 16 15 14 12 11 10 9 10 12 12 12 11 10 8 7 7
11 10 11 11 11 11 12 11 11 10 10 9 9 9 9 9 9 9 10 10 10 10 9 9 10 10 11 11 12 11 11 11 11 11 11 12 12 13 13 13 14 15 15 16 16 16 16 16 16 16 15 15 14 14 14 14 14 13 13 13 12 12 12 12 13 13 13 14 14 14 13 13 12 11 10 10 10 11 12 11 10 9 8 7 7 7
11 10 11 10 10 11 10 10 10 10 10 9 9 9 9 9 9 10 10 10 10 9 9 9 9 10 10 11 11 11 11 11 11 11 11 11 11 12 12 13 13 14 15 16 17 17 16 15 15 15 15 14 14 14 13 13 13 13 13 13 12 13 13 14 14 14 13 13 13 12 12 12 12 10 8 8 8 8 7 7 6 5 5 5 5 6
10 9 9 10 10 10 10 10 10 10 9 9 9 9 9 9 10 11 11 11 10 9 8 9 9 10 10 11 11 11 11 11 11 11 10 10 10 11 11 12 13 14 15 16 17 18 18 17 17 16 15 13 13 13 13 13 13 12 12 12 12 12 12 12 12 12 12 12 12 13 14 13 11 7 6 5 4 4 4 4 4 4 4 4 5 5
9 9 9 9 9 10 10 10 10 10 10 9 9 9 9 10 11 11 11 10 9 8 8 9 10 10 10 11 11 11 11 11 11 11 11 11 11 11 11 12 12 13 14 15 16 17 19 19 19 17 15 12 12 12 12 12 12 11 11 11 11 10 10 11 11 10 11 11 12 13 13 10 7 4 3 3 3 3 3 3 3 3 4 4 5 6
10 9 9 9 9 10 10 10 10 9 9 9 9 9 9 10 11 11 10 9 8 8 8 9 10 10 11 11 11 11 11 11 11 11 11 11 11 12 12 12 13 13 14 14 15 16 17 18 18 17 15 13 11 10 11 11 11 11 11 11 10 10 10 10 9 9 10 12 13 12 9 5 3 3 3 3 2 2 2 2 2 2 4 5 6 6
10 9 9 9 9 10 10 10 10 9 9 9 9 10 10 10 11 10 9 7 7 8 8 9 10 10 11 11 11 11 11 11 11 11 11 11 12 12 12 13 13 14 14 14 14 14 14 14 14 14 13 13 12 11 11 11 11 11 11 11 10 10 10 9 9 9 11 12 10 8 4 2 2 2 3 3 3 2 2 2 2 2 3 4 6 6
10 9 9 9 9 10 10 10 10 9 9 9 10 10 10 11 10 9 7 6 6 7 8 9 10 10 11 11 11 11 11 10 10 11 11 11 12 12 13 13 13 14 13 13 13 12 11 10 9 8 8 8 9 11 12 12 11 11 11 10 10 9 8 8 8 9 10 9 7 4 3 2 2 2 3 4 4 4 3 3 3 3 3 4 4 5
10 9 9 9 10 10 10 10 10 10 10 10 10 10 11 11 10 8 6 6 7 8 9 9 10 10 10 10 11 10 10 10 10 11 11 11 12 12 12 13 13 13 12 11 11 10 9 8 6 5 4 5 6 8 10 10 10 10 9 8 7 7 6 6 6 7 7 5 4 3 2 2 2 2 3 4 4 4 4 3 3 3 4 4 4 5
Wind_Direction
293 295 296 297 296 295 294 294 294 294 294 295 295 296 296 296 294 293 293 293 292 292 292 291 291 291 291 292 292 293 293 294 294 294 294 294 294 294 294 293 293 292 292 291 289 288 287 286 285 284 283 282 281 280 279 278 276 276 275 274 274 273 273 272 272 273 273 273 273 273 273 272 272 272 273 273 274 275 275 275 274 274 274 276 277 279
295 295 296 296 296 295 294 294 293 293 293 293 294 295 295 295 295 294 294 293 292 291 291 291 292 292 292 292 292 292 292 293 293 294 294 294 293 293 293 293 293 292 292 291 290 288 287 286 285 285 284 284 283 282 281 280 278 277 276 275 275 275 274 274 274 275 275 275 275 275 275 274 274 275 274 273 274 275 275 276 276 276 276 277 279 279
296 296 296 297 296 295 294 295 294 293 292 292 292 293 293 294 294 293 293 293 292 291 291 292 292 292 292 292 292 291 291 292 292 293 293 293 293 293 292 292 292 292 292 291 290 289 288 287 286 285 285 284 284 283 282 281 279 277 276 276 275 275 275 275 275 275 275 275 275 275 274 274 274 275 274 274 275 276 277 278 278 278 278 279 279 280
294 295 296 298 297 295 293 294 294 293 291 291 290 291 292 292 292 291 291 291 292 292 292 292 292 292 292 292 291 291 291 291 292 292 292 292 292 291 291 291 291 291 291 291 290 289 288 288 287 286 285 284 284 283 282 281 279 277 276 276 275 275 274 274 273 273 272 272 272 271 271 271 271 271 272 272 273 274 275 277 278 278 278 278 278 278
292 293 294 296 295 294 293 293 293 292 291 289 289 289 290 290 290 290 290 290 290 291 292 292 292 292 292 292 292 291 291 291 291 291 290 290 290 289 289 290 290 290 290 290 290 289 288 288 287 286 285 284 284 283 282 281 279 278 277 276 276 275 274 273 272 272 271 270 270 269 269 269 269 269 269 269 270 271 271 272 273 274 275 275 276 276
290 291 292 292 291 291 292 292 292 291 291 289 288 287 287 287 288 288 289 289 290 291 292 292 292 291 291 291 291 291 291 291 291 290 290 289 288 287 287 288 289 289 290 290 290 289 288 288 288 287 286 285 284 283 282 281 280 279 278 277 276 276 275 274 273 272 272 271 271 270 270 270 270 269 269 269 269 269 269 269 270 270 271 272 273 274
290 290 290 289 288 287 288 288 289 289 288 287 287 287 287 287 287 287 287 288 289 290 291 291 291 290 290 291 291 292 292 292 292 291 290 289 288 287 287 288 288 289 290 290 291 291 290 289 289 288 287 286 285 284 282 281 280 279 278 278 277 276 276 275 275 274 274 274 274 274 273 274 274 273 273 273 273 273 273 273 272 271 271 272 272 273
289 289 288 287 288 288 287 286 286 285 285 284 285 287 288 289 289 288 289 289 289 290 290 290 290 290 290 291 292 293 294 294 294 293 292 291 290 289 289 289 290 290 291 291 291 291 291 290 290 289 288 287 286 285 283 281 280 279 278 278 277 277 277 276 275 275 275 275 274 275 275 275 275 275 275 275 274 275 275 274 274 274 274 274 274 275
285 288 288 287 288 289 289 287 285 284 283 283 283 285 288 290 290 291 291 291 291 290 289 289 288 289 290 292 294 295 295 294 293 292 292 291 291 290 290 290 290 290 290 290 291 291 291 291 291 290 289 287 286 284 283 282 281 279 279 278 278 277 278 276 275 275 274 273 273 273 272 272 271 271 271 271 270 270 271 271 271 271 272 272 273 274
283 286 288 288 287 286 285 286 286 286 284 282 281 281 283 286 289 291 291 291 291 290 287 285 285 288 292 295 296 297 296 293 291 289 289 289 288 287 287 286 287 287 287 289 290 292 292 292 292 291 290 289 288 286 284 283 281 280 279 278 278 278 278 277 276 276 275 274 274 274 273 272 271 270 270 270 269 269 268 269 268 268 269 269 270 272
285 286 287 288 287 284 280 280 283 285 286 284 282 279 277 278 283 288 289 289 290 289 286 283 284 289 295 300 300 299 296 294 292 290 290 290 289 287 285 284 283 284 285 287 288 290 291 292 292 292 292 291 290 289 288 286 285 283 281 279 278 278 277 276 276 275 276 275 275 275 274 273 272 272 271 270 270 270 270 270 270 270 270 270 271 272
285 286 286 285 284 281 278 277 280 285 287 286 283 280 278 279 282 285 286 287 288 286 284 284 287 293 298 301 301 298 294 292 291 291 293 293 293 291 289 287 286 286 287 287 287 288 289 290 291 291 291 290 289 289 289 289 288 287 286 284 282 280 278 277 276 275 275 274 274 274 273 273 272 272 271 270 270 270 269 269 269 270 270 271 271 272
282 281 280 278 276 276 277 280 284 287 285 283 282 283 286 288 288 288 287 285 283 282 284 289 294 297 299 299 297 294 291 290 289 290 292 292 292 292 292 292 292 292 291 290 289 289 289 289 289 288 288 288 287 287 287 287 288 288 287 286 283 282 280 278 277 276 275 275 274 274 273 272 272 271 271 270 270 270 269 269 269 269 269 269 270 271
282 279 277 275 276 279 283 285 286 286 283 281 281 284 286 288 289 288 285 280 278 281 289 295 298 299 298 296 292 290 288 288 289 289 288 287 287 290 293 295 295 295 294 291 289 288 288 288 288 286 285 285 284 283 283 283 284 284 284 284 283 282 280 279 277 276 275 275 275 274 274 273 272 272 271 271 270 270 270 269 269 268 269 269 270 270
283 283 282 282 282 284 285 285 285 284 283 283 283 283 284 285 285 283 280 278 282 289 296 298 298 297 295 292 290 287 286 286 286 286 285 284 286 290 294 297 297 297 296 292 289 287 288 287 285 284 283 282 281 280 280 280 281 283 284 285 284 284 282 280 278 277 276 275 275 274 274 273 272 272 272 272 271 271 270 270 269 269 269 269 269 270
282 281 279 280 282 285 286 286 285 285 285 286 286 286 286 286 283 280 278 281 289 296 298 297 296 294 292 290 288 286 286 286 286 287 288 290 292 295 299 301 300 299 298 295 291 289 288 286 284 282 281 281 280 280 280 280 282 284 286 288 288 286 284 281 279 278 277 276 275 274 273 272 272 272 272 272 272 272 271 270 269 269 268 268 269 269
284 285 286 289 292 293 293 292 290 290 293 296 298 297 294 290 287 284 283 285 290 293 293 291 290 291 291 290 289 288 290 295 299 301 302 301 301 302 305 304 303 301 300 298 294 291 288 286 284 282 281 279 279 279 279 280 282 284 287 288 288 287 285 283 280 278 277 275 274 272 272 271 271 272 272 272 272 272 271 271 270 270 269 268 268 268
284 285 288 290 290 290 291 293 296 299 302 304 305 302 297 292 289 287 286 284 284 286 286 285 283 282 285 288 290 293 301 311 317 317 313 308 306 306 308 306 303 301 300 299 297 294 291 288 284 282 280 279 277 276 276 277 279 281 284 286 287 286 284 281 279 278 276 275 273 271 270 270 271 272 272 273 273 273 272 272 272 271 270 269 269 268
279 278 277 277 278 280 283 285 289 292 296 298 298 297 294 290 287 285 281 279 278 278 278 276 275 275 278 283 294 309 322 329 325 317 312 308 306 306 306 305 303 301 299 298 297 296 295 292 287 283 280 278 276 275 274 275 277 280 283 285 285 284 283 281 279 277 276 274 272 270 269 269 270 272 273 273 273 273 273 273 273 272 271 269 269 269
277 277 276 277 279 282 283 283 284 286 288 290 291 290 289 288 285 281 276 274 274 273 271 269 270 275 284 297 311 320 324 323 317 310 306 303 301 300 301 301 300 299 297 296 295 295 295 294 292 289 285 282 278 275 273 273 276 279 283 285 285 284 283 281 279 277 275 273 271 269 269 269 271 272 273 274 274 274 274 274 273 272 271 270 269 269
281 282 282 283 285 285 285 284 283 284 284 285 284 283 283 283 282 280 278 280 281 282 284 286 290 297 306 308 307 308 309 309 306 303 299 296 294 294 295 295 295 293 292 292 292 293 294 293 292 291 290 287 283 278 275 274 275 279 282 284 285 284 283 281 279 277 275 273 271 270 269 270 272 273 274 274 274 274 275 275 274 273 271 270 270 270
282 283 283 283 282 282 282 282 281 280 279 278 277 277 278 280 282 285 291 296 300 303 304 302 299 297 296 295 296 298 299 298 296 293 293 290 289 290 291 291 290 289 288 289 290 291 292 292 291 290 289 288 286 283 279 277 277 279 281 283 284 284 282 280 278 275 274 272 271 270 270 271 273 274 274 274 274 274 275 275 274 272 271 270 270 270
278 280 280 279 278 277 278 278 278 277 276 273 272 273 275 280 284 290 297 303 304 301 296 291 289 289 290 292 293 295 294 292 289 287 287 286 287 290 292 291 290 288 287 289 291 292 292 291 289 288 288 287 286 285 284 281 280 280 281 282 283 283 282 280 277 275 272 271 270 270 271 272 273 274 275 274 274 274 274 274 273 272 271 271 271 271
276 276 275 275 274 273 273 274 276 277 277 277 277 280 283 287 289 291 292 293 293 292 290 291 292 292 292 293 294 293 292 289 284 281 282 282 285 289 291 292 291 290 289 290 291 292 292 290 288 287 287 287 287 288 288 285 283 282 282 283 284 285 283 279 276 273 271 270 269 270 271 272 273 274 274 274 274 274 274 274 273 272 272 271 271 272
275 273 272 271 271 271 271 273 275 279 283 288 293 297 300 301 300 298 295 293 291 290 291 292 292 292 294 295 295 293 293 292 287 281 282 283 286 289 291 293 293 291 290 290 291 291 291 289 289 288 288 288 289 289 289 287 285 283 282 283 284 285 283 279 275 272 271 270 269 270 271 272 273 274 274 274 274 274 274 274 273 273 272 272 272 272
274 275 275 275 274 274 275 278 282 287 294 300 305 309 313 314 313 308 303 298 295 294 294 292 291 291 293 294 294 294 295 295 292 287 285 287 289 291 292 292 291 290 290 290 291 291 291 290 290 289 289 288 287 286 285 284 282 280 278 280 281 282 280 278 275 272 271 270 270 270 272 273 274 274 273 273 273 273 274 274 274 274 273 273 273 273
279 280 282 282 282 282 283 287 292 297 300 301 301 302 305 310 313 310 304 300 299 297 294 291 290 292 294 294 295 296 298 298 295 291 289 289 289 289 289 290 290 290 290 291 292 292 292 291 290 290 289 288 286 284 282 281 279 277 274 275 277 277 277 276 274 272 271 271 271 271 273 274 275 274 273 273 273 273 274 274 274 274 274 274 274 274
283 285 288 290 292 293 296 299 299 298 296 294 291 291 293 299 301 299 295 298 300 298 293 291 291 294 296 297 298 299 299 296 293 291 289 287 284 283 286 290 292 292 294 294 295 294 293 291 290 290 289 287 286 284 283 284 284 284 282 281 280 279 279 278 277 275 273 273 273 273 275 275 275 274 273 273 273 273 274 274 274 274 274 274 274 274
282 285 290 295 298 300 301 300 298 294 291 290 290 290 291 290 286 282 286 293 296 294 290 290 291 295 297 298 299 298 295 292 290 290 291 287 282 282 287 292 295 297 299 299 299 297 293 290 289 288 288 287 287 289 294 302 310 313 312 306 300 294 289 286 284 282 280 280 279 278 278 277 276 274 273 272 272 272 272 273 274 274 274 273 273 273
280 285 292 295 297 298 298 297 295 293 291 290 291 291 289 284 278 275 279 284 286 286 286 288 291 293 296 298 298 295 292 289 291 296 300 295 288 288 293 296 298 299 301 301 300 296 291 289 287 286 287 292 300 309 316 322 324 323 321 316 311 304 299 295 293 290 287 285 284 282 280 279 278 276 274 271 270 270 270 270 271 271 271 271 272 272
288 295 299 299 298 297 295 293 292 292 292 292 293 292 288 283 278 275 276 277 278 280 283 287 289 291 293 294 294 291 289 289 293 301 309 301 292 291 295 296 295 294 295 294 291 285 290 291 290 291 294 301 308 312 313 313 312 310 308 306 303 299 296 295 293 291 288 285 282 280 279 279 278 277 274 272 270 269 268 268 267 268 268 270 271 272
304 305 303 302 300 298 295 291 290 291 293 294 294 293 290 284 279 275 274 274 275 278 281 284 286 287 286 283 280 277 281 286 290 296 302 295 290 289 291 291 291 292 292 290 289 290 295 298 299 299 300 301 301 300 300 300 301 301 301 299 296 294 292 291 290 288 285 282 279 278 277 277 277 275 273 271 269 268 266 265 264 264 266 267 269 269
308 305 303 301 300 298 295 293 292 292 292 292 292 291 288 284 280 276 276 276 276 277 279 281 282 283 281 278 275 274 277 281 286 291 295 293 290 289 290 290 291 293 295 293 292 291 292 294 297 298 298 297 295 294 294 294 295 296 297 296 295 293 292 292 290 287 284 281 278 276 275 275 274 272 270 269 268 266 264 263 262 262 263 264 266 268
303 302 300 298 298 297 295 294 294 293 291 289 288 287 286 283 281 280 280 280 278 277 276 276 276 278 279 278 276 275 276 279 283 289 294 294 292 290 291 291 291 292 293 292 291 289 288 289 292 295 296 296 294 293 293 293 293 294 294 294 294 294 294 293 291 288 286 284 281 278 277 275 272 269 268 267 265 264 263 262 262 261 260 261 263 266
300 299 297 296 296 295 295 294 294 293 291 290 289 289 288 286 286 286 285 284 281 279 275 273 271 271 273 275 277 278 279 280 284 289 291 291 290 289 289 287 287 288 288 288 288 288 288 289 291 293 295 297 297 295 294 293 293 294 293 293 293 293 293 293 291 289 288 287 285 284 282 280 276 271 268 265 264 262 262 262 262 261 259 258 258 262
299 297 296 294 293 293 293 293 293 292 292 293 294 293 292 292 291 290 289 286 284 281 277 274 271 270 269 270 273 275 279 282 285 287 287 286 285 284 284 283 283 284 285 286 287 288 289 291 292 293 295 296 297 297 296 296 295 295 294 293 293 293 293 293 292 291 290 288 286 284 283 282 280 277 273 270 268 267 267 266 265 262 259 257 256 257
296 294 292 291 291 291 292 292 292 293 294 295 296 296 295 294 293 291 289 286 284 282 279 278 275 273 271 270 270 272 276 280 283 284 284 283 281 278 277 279 280 282 282 284 286 288 290 291 292 292 292 292 293 295 297 298 298 297 295 294 293 292 292 292 291 290 289 286 283 281 280 279 279 278 276 275 274 275 276 274 271 267 263 261 260 259
292 290 289 289 290 290 291 291 292 294 296 296 296 296 295 294 292 290 288 286 284 283 282 281 280 279 277 274 273 275 277 279 281 282 282 283 280 276 274 276 279 281 282 283 284 286 288 288 289 289 290 289 290 292 295 298 298 297 295 294 293 291 290 289 287 286 285 285 284 282 281 280 279 277 275 274 273 274 276 277 274 270 267 265 265 264
288 287 288 289 290 291 292 293 294 295 296 296 295 294 294 292 290 289 288 288 288 287 285 285 284 284 283 282 280 280 280 280 281 281 282 282 280 277 275 276 280 282 283 284 283 283 281 280 280 282 285 288 290 292 294 295 295 295 295 296 294 292 290 289 289 289 290 290 290 289 288 287 286 283 278 273 269 266 268 270 269 267 263 262 263 265
287 287 288 290 292 294 295 295 295 296 296 294 293 292 292 291 291 292 293 292 291 290 289 287 286 285 284 283 282 281 281 281 281 281 282 281 279 278 276 277 278 281 283 282 280 278 275 274 275 277 278 281 285 288 291 291 291 292 294 295 295 293 294 295 297 298 297 295 294 293 294 294 294 290 285 277 268 261 261 264 266 263 257 255 258 263
285 286 288 292 295 297 295 295 295 295 294 293 291 291 292 294 294 295 294 293 291 290 290 289 289 289 289 288 287 286 285 285 285 285 284 283 283 282 281 280 279 279 279 278 278 276 274 274 275 276 278 279 280 283 285 286 287 288 289 290 291 292 294 296 296 295 294 293 293 294 296 297 296 292 287 279 268 259 257 258 259 259 256 254 256 261
282 286 291 296 298 297 295 295 294 293 291 291 292 292 292 294 294 293 293 295 295 295 295 294 295 296 295 296 295 293 290 288 288 289 290 289 288 287 286 285 283 280 278 276 276 275 275 275 275 276 277 279 279 280 281 283 285 285 285 285 289 292 294 294 293 292 292 293 294 296 296 296 294 291 286 278 268 260 259 261 260 257 255 254 255 258
290 295 299 299 298 296 295 295 293 291 290 290 290 290 290 290 289 290 293 295 297 298 300 302 304 305 305 304 305 303 300 296 294 293 294 294 293 292 291 290 288 286 284 280 278 278 279 278 277 276 277 278 277 277 279 282 284 285 284 285 288 291 293 293 294 295 295 294 294 295 296 296 295 291 284 275 266 263 266 268 267 262 254 251 254 259
298 300 299 297 296 296 296 294 292 289 289 288 288 288 288 287 288 290 293 293 295 299 304 311 315 314 311 310 310 309 307 305 301 297 294 292 291 292 293 292 291 291 291 287 283 283 283 282 280 279 279 278 276 276 277 280 283 285 286 286 286 285 284 287 291 293 293 293 295 297 299 298 296 291 284 276 270 269 270 271 268 261 254 251 253 259
292 293 293 293 294 294 292 292 290 289 288 287 286 286 287 287 288 290 293 294 296 303 312 319 321 318 313 311 311 310 308 306 303 300 297 296 294 294 296 298 299 300 299 294 289 285 282 281 282 283 283 280 277 276 276 279 281 283 285 285 284 281 280 282 285 288 289 294 299 303 304 302 298 291 282 273 269 269 269 264 256 249 247 247 254 264
284 286 289 291 293 292 290 291 290 289 287 285 284 284 285 286 289 292 294 297 301 308 317 321 320 316 312 309 309 309 308 307 307 307 306 305 304 304 307 309 309 307 304 299 294 289 284 281 281 282 283 280 277 275 274 275 278 280 282 283 282 281 281 282 284 287 293 301 307 308 307 307 303 292 273 260 253 249 252 247 239 237 246 257 267 275
278 281 286 291 293 293 293 292 291 288 286 286 286 286 286 288 290 293 295 299 304 312 317 318 317 313 309 308 307 307 307 308 311 313 315 315 316 316 315 315 313 310 305 300 295 291 288 284 281 278 277 276 276 277 276 276 276 277 279 281 281 281 281 284 289 296 303 310 313 313 314 316 313 294 268 254 242 232 231 232 240 250 261 274 282 288
277 279 286 291 294 294 294 292 290 287 285 287 288 289 290 290 291 292 296 301 307 312 315 317 316 314 310 308 307 306 307 309 312 315 317 318 320 321 321 320 318 315 311 307 301 294 289 286 282 278 272 267 269 276 279 280 279 279 279 280 281 281 282 287 296 304 310 314 316 318 321 324 317 300 292 281 261 238 220 220 244 270 280 284 289 294
279 280 285 289 292 293 292 291 288 286 285 287 289 291 293 292 292 293 296 302 308 311 313 316 316 314 311 309 307 307 307 309 312 314 317 320 322 323 324 324 324 322 320 317 312 306 299 291 284 280 275 266 263 267 274 277 279 279 280 280 280 282 285 293 302 309 314 318 322 327 337 347 338 321 317 304 290 276 264 263 277 293 300 301 300 300
282 280 283 286 289 290 291 290 288 286 285 287 290 292 293 291 289 290 294 301 307 311 314 316 315 313 311 309 308 309 311 313 315 317 319 322 325 326 327 328 328 328 327 326 325 324 320 311 299 291 287 282 275 270 270 274 279 282 282 284 288 292 298 305 312 317 321 326 333 343 359 9 8 350 325 308 301 296 293 292 297 305 315 319 316 311
281 279 282 285 288 289 289 288 287 285 285 286 289 291 290 288 287 289 297 305 310 312 313 313 313 311 310 309 309 311 314 316 317 318 321 324 326 328 329 330 332 333 332 332 332 333 333 333 330 327 327 331 323 308 297 296 302 307 307 312 320 325 327 328 329 333 341 350 2 17 25 11 355 334 316 307 303 303 305 308 315 324 330 332 327 321